GFSMA_sfc_30mbdewp_183.txt.gz
Dewpoint
63 62 63 62 61 59 58 58 56 56 54 52 52 53 53 54 54 58 61 63 64 63 62 61 60 59 58 57 57 57 57 56 56 56 55 55 56 56 57 58 58 59 60
63 62 63 61 60 58 58 56 54 51 49 48 48 50 50 51 53 58 59 58 59 60 60 59 58 56 56 54 54 54 53 53 53 53 53 53 54 54 54 55 56 56 57
64 62 61 60 58 56 55 52 51 48 45 45 44 47 48 51 53 56 58 56 55 56 56 55 54 53 52 51 51 51 51 50 50 51 52 52 52 53 53 53 54 54 55
64 63 60 59 56 54 52 50 48 45 42 40 43 47 49 51 52 55 56 55 53 52 52 52 51 50 49 49 49 49 48 48 49 49 49 49 49 50 50 51 52 53 54
64 62 60 59 55 53 50 48 44 41 40 41 42 46 48 49 51 51 53 52 52 51 49 48 48 48 47 47 47 47 47 47 48 48 47 47 47 47 47 47 48 49 50
63 62 61 59 56 51 49 47 43 40 40 44 43 46 48 48 48 49 50 49 49 48 46 44 43 44 45 46 46 46 47 47 47 47 46 45 44 44 45 45 46 46 47
61 60 60 58 57 52 49 47 43 40 41 47 44 47 47 48 48 48 48 47 46 45 45 44 40 40 42 44 45 45 45 44 44 43 43 43 43 43 43 44 44 44 45
55 56 56 56 55 51 49 46 44 42 44 46 45 44 43 45 46 47 48 45 43 43 42 40 40 39 39 38 40 42 42 42 42 42 41 41 41 42 43 43 43 43 42
52 52 51 53 55 49 47 46 46 44 45 47 48 44 42 40 44 45 46 46 43 41 40 40 40 39 38 38 37 37 38 39 40 41 41 41 41 42 42 42 42 42 43
47 47 47 47 47 49 47 47 48 47 46 46 47 46 46 44 41 41 44 45 44 41 41 39 38 37 38 36 36 36 36 37 37 38 39 39 39 41 41 42 42 41 41
46 45 46 45 44 45 46 45 44 46 46 44 44 45 43 42 43 39 39 42 42 41 40 38 38 36 36 37 36 35 35 35 35 35 36 37 39 39 39 39 40 41 41
44 44 43 43 43 42 42 41 41 42 42 40 40 42 42 41 41 40 39 40 41 42 41 40 38 36 36 36 35 34 34 34 34 34 34 34 35 37 38 38 38 38 39
44 43 44 44 44 44 44 43 43 43 43 44 43 42 41 42 43 44 44 43 41 40 37 37 37 36 34 35 34 33 33 32 32 32 32 32 32 34 35 36 37 37 37
45 45 44 45 44 44 44 43 42 42 42 43 43 43 43 42 42 42 41 40 39 38 35 33 35 36 33 35 34 32 31 31 30 30 31 32 31 32 33 34 33 33 34
45 44 43 42 42 41 41 41 41 40 41 41 41 40 38 36 36 36 37 38 39 37 35 34 31 34 35 34 33 34 31 30 28 28 29 30 30 31 31 33 31 31 32
44 44 42 42 42 40 40 39 38 37 36 36 36 35 33 32 32 31 30 32 35 36 33 31 31 31 33 33 33 33 32 30 29 28 28 29 29 29 30 31 29 29 29
45 43 43 41 38 37 36 34 33 33 32 31 32 31 31 30 29 28 30 30 30 28 27 28 29 31 33 31 30 33 32 31 30 28 28 28 28 28 28 31 28 27 27
44 41 39 37 35 35 34 33 30 30 30 30 30 30 30 28 29 29 28 28 28 28 31 29 26 28 29 29 31 30 31 31 30 28 27 27 27 26 29 29 26 25 24
40 38 36 35 33 33 33 32 31 31 33 33 31 31 32 32 33 32 33 33 31 27 29 28 24 25 26 26 28 28 25 32 29 29 27 26 25 26 30 25 24 23 23
39 37 36 33 34 35 36 36 35 33 32 31 32 32 29 29 28 26 24 23 22 23 27 25 22 22 22 23 26 24 25 28 27 27 26 25 24 25 28 24 22 21 20
40 39 37 36 37 37 35 33 33 33 33 32 29 25 25 25 25 24 19 19 19 21 19 21 21 21 20 20 20 20 20 27 27 25 25 23 27 30 31 25 23 20 19
41 39 37 37 37 36 34 34 35 33 32 31 28 26 26 24 23 23 25 27 27 28 18 18 19 17 17 19 18 15 15 23 21 25 24 23 25 24 27 23 22 20 18
40 39 39 38 38 37 34 34 34 34 33 31 30 28 25 24 23 21 23 23 24 24 23 26 23 26 18 17 13 11 12 18 20 23 23 24 25 27 23 27 21 22 20
41 40 40 39 38 36 33 33 33 36 35 33 33 32 29 26 25 24 24 23 24 25 27 27 27 26 26 23 20 15 17 27 26 24 29 21 27 25 27 22 22 21 20
39 36 35 35 33 32 32 32 35 33 31 30 31 30 28 26 22 23 23 22 22 22 23 23 22 21 20 20 21 20 22 23 23 23 26 27 24 23 24 25 23 19 18
35 34 33 33 33 33 32 31 33 32 29 28 28 28 27 26 23 21 22 22 21 22 22 21 21 21 22 22 22 28 25 19 23 22 25 25 22 22 21 22 22 25 24

GFSMA_sfc_30mbdewp_186.txt.gz
Dewpoint
65 65 66 64 64 63 63 60 60 59 57 55 54 55 55 58 60 62 62 64 64 64 63 62 61 60 59 58 58 57 57 57 57 56 56 56 56 56 57 58 57 58 58
65 64 64 63 64 63 62 61 59 57 55 53 51 53 53 55 60 60 59 59 60 61 60 59 58 57 56 55 54 54 53 53 53 54 54 54 53 54 54 54 55 56 57
66 64 64 63 62 61 61 60 57 54 53 50 49 51 50 55 59 58 57 56 55 56 57 56 54 53 53 52 52 51 51 51 51 50 50 51 51 52 53 53 54 55 55
66 64 63 62 61 60 58 55 53 51 49 48 48 50 52 54 58 58 56 54 53 52 52 53 52 51 51 50 50 50 49 50 50 50 49 49 49 48 49 49 51 52 52
65 64 62 62 60 57 56 54 52 49 46 46 46 51 51 52 56 56 55 54 53 50 49 49 49 49 48 48 48 48 48 49 48 47 46 46 45 46 46 47 47 48 49
65 64 63 61 58 57 56 53 49 47 46 45 43 50 51 51 52 54 52 52 50 48 47 46 46 48 48 47 48 48 47 46 46 45 45 45 45 44 45 45 45 46 45
64 63 61 58 58 57 53 52 48 44 45 49 49 49 49 50 50 52 53 50 49 47 46 43 43 45 45 45 46 45 45 45 45 44 44 43 44 44 44 45 44 43 44
59 59 59 58 57 57 55 51 45 44 48 48 47 48 47 47 47 50 48 47 46 45 45 44 43 42 40 42 42 43 44 43 43 43 42 42 43 43 43 43 43 43 44
53 53 54 56 55 55 54 53 52 49 50 48 49 47 44 43 46 47 47 46 44 44 42 41 40 42 40 39 38 39 40 41 41 42 41 41 42 42 42 42 42 42 43
49 49 49 49 49 50 49 50 52 52 52 48 49 47 47 47 43 43 46 45 44 43 42 41 40 40 38 37 38 38 38 38 39 40 40 40 41 40 41 42 42 42 41
48 47 47 47 47 46 45 46 46 47 47 50 49 46 45 43 44 44 43 43 45 43 42 40 39 40 38 36 36 36 36 36 37 37 38 38 39 40 40 41 39 40 40
46 46 46 46 45 45 45 45 46 46 46 47 47 47 46 45 45 44 43 43 43 44 43 44 44 42 40 36 35 36 35 35 35 35 35 36 37 38 38 39 38 39 38
45 45 46 45 45 44 44 45 45 45 46 45 44 44 44 44 45 45 45 44 43 45 45 46 44 44 38 36 35 34 34 33 33 33 33 33 34 35 36 36 35 36 36
45 46 45 45 45 45 45 45 44 44 44 43 42 42 42 43 44 44 44 43 41 43 40 38 43 43 41 35 34 33 32 31 31 31 32 31 32 33 34 32 33 34 34
46 45 44 44 44 44 43 43 42 42 42 42 43 43 42 41 41 42 43 43 41 39 38 37 36 38 37 36 34 32 31 30 30 30 30 30 31 33 33 30 31 31 32
45 44 43 43 42 42 42 41 40 41 40 41 41 40 38 37 39 39 37 39 41 41 39 41 36 37 35 34 35 32 31 30 29 29 30 29 29 30 31 30 28 28 28
45 44 43 43 41 41 41 39 38 37 36 36 36 35 35 34 33 32 32 34 36 37 35 37 35 37 35 33 36 32 32 31 30 29 29 29 28 29 30 28 27 26 26
45 43 43 42 40 39 38 37 35 35 34 33 33 32 32 31 30 30 30 30 33 34 35 35 32 34 36 34 34 32 32 31 30 30 28 28 27 31 27 26 25 24 25
44 44 41 39 37 36 35 34 33 33 33 32 33 32 30 31 31 32 33 31 30 29 32 33 31 31 33 33 32 34 34 32 30 30 27 26 28 28 26 24 23 23 22
42 39 38 37 36 35 34 32 33 33 34 35 34 33 33 33 33 33 33 34 34 32 31 31 34 29 31 31 32 31 32 30 29 29 26 26 27 27 25 23 22 21 21
40 39 38 36 35 35 36 38 37 35 33 34 32 29 27 27 27 27 26 24 23 25 30 32 34 27 24 24 26 29 30 32 28 28 25 24 27 31 26 25 21 20 19
41 39 38 37 39 39 36 35 35 34 34 32 29 27 26 24 24 26 28 28 28 27 24 23 26 23 23 23 25 24 28 28 26 27 25 25 32 28 24 24 21 19 19
42 40 39 39 39 36 34 35 36 35 33 33 30 28 26 24 23 23 26 26 26 26 28 28 25 26 25 26 28 26 20 27 25 26 26 26 28 25 25 23 23 21 21
42 40 40 39 39 35 34 34 36 36 35 34 33 30 26 25 24 24 25 25 25 26 27 28 27 27 27 26 25 25 28 26 26 28 28 23 28 26 24 23 21 21 20
41 39 39 39 37 34 34 33 35 34 32 31 30 29 27 25 24 25 24 23 22 23 24 25 25 25 25 24 27 26 26 24 24 25 26 26 26 24 26 24 20 19 18
38 37 36 36 35 33 33 34 34 32 29 29 29 28 27 26 23 24 23 22 20 21 21 22 24 24 24 21 26 28 28 24 22 23 25 25 24 23 20 23 23 20 18

GFSMA_sfc_30mbdewp_192.txt.gz
Dewpoint
66 67 66 66 65 64 63 62 61 60 59 59 56 61 62 62 63 63 65 65 65 65 64 64 64 63 62 61 61 60 59 59 59 58 58 57 57 58 58 58 59 59 60
66 66 66 65 64 63 63 61 60 59 59 55 56 61 61 61 61 61 62 63 64 63 63 62 62 61 60 58 57 57 57 56 55 55 55 55 56 56 56 57 58 58 59
66 66 65 65 65 63 62 61 60 59 57 53 54 60 60 59 59 58 58 59 59 59 59 58 57 57 56 55 54 54 53 52 52 51 51 51 51 53 54 54 55 55 55
66 66 66 65 65 64 62 62 60 58 55 52 52 59 58 58 56 55 54 54 54 55 56 55 54 53 52 53 52 51 51 49 48 48 48 48 48 49 49 49 50 51 51
66 66 66 65 64 64 63 61 58 55 52 50 51 58 57 56 55 53 52 52 52 52 52 54 53 52 52 50 51 51 49 49 48 47 47 46 46 47 47 47 47 46 47
67 66 65 64 64 62 60 59 56 52 50 49 51 56 57 56 54 53 51 50 50 49 49 49 49 51 51 52 53 51 49 48 47 47 46 45 45 46 46 45 45 46 46
66 65 64 63 61 61 59 56 54 50 48 49 51 52 53 55 54 53 50 49 48 48 48 47 46 45 48 49 48 48 48 47 45 45 45 43 44 44 44 44 44 45 45
64 64 62 61 60 58 57 56 53 51 50 52 50 50 48 50 51 53 50 48 46 46 46 45 44 44 45 46 47 47 45 45 44 44 43 44 44 45 43 42 44 46 46
60 61 59 58 58 58 55 54 54 51 51 53 53 51 47 47 48 50 50 47 45 44 44 42 42 42 42 43 44 44 44 44 43 43 43 43 43 43 45 45 44 43 44
55 56 56 55 54 53 52 51 52 53 53 51 51 51 51 50 46 44 48 48 47 43 43 40 40 39 39 40 42 42 42 42 42 42 43 44 44 44 44 43 43 42 42
52 53 53 52 52 51 51 52 52 52 52 52 50 49 49 49 49 46 43 45 45 44 43 41 40 39 41 41 41 41 40 41 41 41 42 42 43 43 42 42 41 42 42
50 50 51 51 51 51 51 52 52 51 52 51 50 49 49 48 47 46 44 44 43 45 44 41 39 39 39 40 41 41 41 40 39 38 39 40 41 42 40 40 40 40 39
48 49 50 50 50 50 50 50 50 50 50 50 49 48 48 47 47 47 45 45 43 44 44 44 42 39 37 40 40 39 38 37 36 35 36 37 38 38 37 37 38 37 38
48 49 49 48 48 48 48 48 48 48 48 48 48 47 47 47 47 46 45 44 42 43 44 44 42 40 39 39 39 38 37 36 35 34 35 36 37 35 35 35 35 34 34
47 47 47 47 47 47 47 47 46 45 46 45 45 45 45 45 46 46 46 44 42 40 41 42 40 39 37 39 39 36 36 35 34 33 33 34 35 34 33 32 32 31 31
47 47 46 46 45 45 45 45 44 44 43 43 43 42 42 43 44 44 44 43 43 41 40 41 40 39 37 38 37 35 35 35 33 32 32 32 34 33 33 31 29 29 29
46 46 45 45 44 43 43 42 42 42 42 41 41 40 40 41 41 41 42 43 42 42 40 39 40 38 37 36 35 34 36 35 33 31 30 30 33 32 31 29 28 27 28
46 45 45 44 43 42 41 41 41 40 40 39 39 38 37 37 36 34 34 34 39 39 37 37 37 37 36 34 33 35 34 35 34 31 29 29 31 29 29 28 25 26 25
44 43 42 42 41 41 40 39 39 39 38 37 36 36 34 33 31 30 30 32 36 37 36 36 34 35 35 34 34 34 34 33 34 33 29 31 29 27 28 26 24 23 24
44 43 42 41 41 40 39 38 37 36 36 34 33 32 31 30 29 29 30 30 31 33 35 35 32 35 35 35 34 31 30 32 32 33 27 31 28 27 28 24 23 22 21
44 43 42 41 40 39 37 36 36 34 33 32 31 30 30 31 31 31 32 31 31 30 32 34 32 33 33 33 31 31 29 30 30 30 30 32 30 28 27 23 22 20 20
43 43 41 39 38 37 34 35 34 33 32 30 29 29 31 31 31 31 30 30 31 31 29 30 34 33 32 33 32 31 29 27 25 31 29 29 30 28 24 21 22 21 19
42 41 40 39 37 36 34 34 34 33 31 29 28 27 24 26 28 29 30 30 30 29 28 29 32 33 31 32 32 31 29 27 27 30 28 26 29 25 23 22 22 22 21
42 41 40 38 37 35 34 34 34 33 31 29 27 26 24 22 24 26 24 23 23 24 25 26 26 30 31 29 33 31 30 30 30 30 30 23 26 24 25 24 23 21 20
41 40 39 37 36 35 35 35 34 32 30 28 26 25 23 19 22 25 20 20 22 23 28 28 27 27 28 29 30 29 29 28 25 26 28 24 24 23 23 21 22 21 20
41 40 38 37 36 34 36 34 33 33 30 28 26 25 24 21 26 24 17 18 17 21 23 24 25 25 27 30 29 28 28 26 24 24 28 23 23 21 19 22 19 19 18

GFSMA_sfc_30mbdewp_195.txt.gz
Dewpoint
66 66 66 66 66 65 64 63 62 61 61 60 57 61 62 63 64 65 65 65 66 65 65 65 64 64 63 63 62 61 61 60 59 59 58 58 58 58 59 59 59 60 61
66 66 65 65 65 65 63 62 61 60 59 57 58 62 62 62 63 63 64 64 64 64 64 63 63 62 61 60 59 59 57 56 55 56 55 55 55 56 57 57 57 58 58
66 65 65 65 65 64 63 62 61 60 58 55 59 61 61 61 61 61 61 61 62 62 61 61 59 58 58 56 55 54 53 52 51 51 50 50 51 51 52 53 54 54 55
66 66 65 65 65 64 63 62 60 59 57 53 58 59 59 59 57 57 56 57 57 57 57 56 55 54 54 52 52 52 50 49 48 48 48 48 48 48 48 48 48 49 49
66 65 66 65 65 64 63 62 60 59 56 52 56 58 58 57 55 54 53 53 54 54 55 55 54 54 53 53 52 51 50 49 49 47 46 46 46 46 46 46 46 46 46
65 65 65 65 65 64 63 62 60 58 56 53 56 57 56 56 54 53 52 51 51 51 50 51 52 53 53 53 52 51 50 49 48 46 45 45 45 45 45 46 46 46 46
66 65 65 64 64 64 63 61 59 56 52 53 54 54 55 55 53 51 51 50 49 49 49 49 49 50 52 52 51 50 49 47 46 45 45 45 45 44 44 43 45 46 47
66 66 65 64 63 62 60 59 57 53 52 54 52 52 50 51 52 52 51 50 49 49 48 48 47 47 47 48 49 48 47 46 45 45 45 45 45 44 44 46 45 45 46
64 64 64 62 61 60 59 57 55 54 51 53 54 51 49 49 48 49 50 49 48 48 47 46 45 45 46 46 46 46 46 45 44 44 44 43 44 45 45 45 44 44 44
58 60 60 60 59 58 57 56 55 54 53 51 52 52 52 50 47 44 48 47 47 45 43 43 41 41 41 42 44 44 44 44 43 44 44 45 45 45 44 44 43 43 43
54 54 56 57 56 56 54 54 54 54 54 52 51 51 50 50 48 45 43 45 47 46 43 42 41 42 43 42 43 44 43 43 43 44 44 44 44 44 43 42 42 42 42
52 52 53 53 53 53 53 54 54 54 53 53 51 51 50 48 48 46 44 44 43 43 42 41 41 41 42 42 43 43 42 41 41 40 41 42 43 42 41 41 40 40 41
50 51 52 52 52 53 53 53 53 53 53 52 51 51 49 49 49 47 45 44 43 43 42 41 41 41 40 42 43 41 40 39 38 38 38 39 40 39 39 38 38 38 38
49 50 50 50 50 51 51 51 51 51 52 51 50 49 49 49 48 48 46 44 42 42 42 41 41 40 41 41 40 39 38 37 36 36 37 38 37 37 36 35 34 34 35
49 49 49 49 49 49 49 49 48 47 48 48 48 48 48 47 47 47 46 45 43 40 40 41 38 40 39 41 41 37 37 36 36 36 36 35 36 35 34 32 32 32 32
48 48 48 47 47 47 47 47 46 46 47 46 46 46 45 46 46 46 45 44 43 42 40 42 40 39 39 40 39 37 37 35 34 34 33 35 35 34 32 31 30 29 29
48 47 47 46 45 45 45 45 45 44 44 44 43 43 43 43 43 43 43 43 42 42 40 40 39 38 38 38 37 36 37 35 33 32 33 34 34 32 30 29 28 29 29
47 46 46 45 44 44 44 44 43 43 42 41 41 41 41 40 40 39 40 40 40 39 38 37 36 36 36 36 35 36 35 36 33 31 30 32 31 30 29 27 26 27 27
46 45 45 44 43 43 42 41 41 41 40 40 39 38 37 37 35 34 34 35 38 38 36 36 36 36 35 35 34 34 34 34 35 31 30 30 30 30 27 25 25 25 25
44 44 44 43 42 41 40 40 39 39 38 38 37 36 35 34 33 31 31 32 35 36 36 34 34 35 34 34 34 31 30 32 32 31 31 30 29 28 26 24 24 23 23
44 44 43 42 42 41 39 38 38 37 36 34 33 32 32 31 31 30 29 30 32 33 34 33 34 34 33 31 30 31 29 30 30 30 30 31 28 27 26 23 22 21 22
44 43 42 42 41 40 39 38 37 35 34 32 31 30 33 34 32 32 32 31 31 30 32 32 32 33 32 32 32 30 29 27 25 30 28 29 28 27 27 21 22 21 19
44 43 43 41 40 40 37 37 36 34 33 31 30 30 30 30 31 31 31 31 30 31 30 31 32 33 32 33 32 30 29 27 26 29 28 27 28 25 23 22 22 22 21
43 43 42 41 39 38 36 36 34 33 32 30 30 29 28 29 28 28 26 24 23 24 25 28 30 32 33 35 34 32 30 30 30 30 29 23 26 24 26 24 24 22 20
43 42 40 39 39 37 36 35 34 32 30 29 28 27 26 25 28 28 23 22 23 25 29 28 26 28 31 34 34 32 29 28 24 26 28 23 24 22 24 24 27 22 20
43 41 39 39 38 38 36 35 33 32 30 28 26 26 26 21 27 26 22 21 21 23 26 27 25 28 30 32 32 31 29 27 24 24 27 23 22 21 20 23 23 21 19

GFSMA_sfc_30mbdewp_198.txt.gz
Dewpoint
66 66 66 65 65 66 65 63 62 61 61 60 58 59 62 63 64 65 65 66 66 67 66 65 65 65 64 63 62 62 60 60 59 59 58 58 59 59 59 59 59 59 59
66 66 65 65 65 65 64 63 62 61 60 58 58 61 62 63 63 64 64 64 65 65 64 64 63 63 62 61 59 58 57 56 55 54 54 54 55 55 55 55 56 56 56
66 65 65 64 64 65 64 63 61 60 59 56 59 61 61 62 62 62 62 63 63 63 63 62 61 60 59 57 55 54 53 52 51 51 50 50 50 51 50 51 51 51 51
66 65 64 64 64 64 64 62 61 60 58 55 59 60 60 60 59 59 59 59 60 60 59 59 59 57 55 55 53 51 50 50 49 48 48 47 48 48 47 47 47 47 47
66 65 65 64 64 64 63 63 61 59 58 54 58 59 59 58 57 56 55 56 56 56 56 57 56 54 54 53 52 51 50 49 48 47 47 47 47 46 46 46 46 46 46
66 65 65 65 64 64 63 63 61 59 57 54 58 57 57 56 54 54 54 54 53 53 54 54 55 55 55 53 52 52 50 49 47 47 46 46 46 45 45 45 46 46 46
65 65 65 65 64 64 64 63 61 58 55 56 55 54 55 55 54 53 53 52 52 51 51 52 53 54 55 54 52 51 50 48 46 46 46 46 45 45 44 46 46 47 47
65 65 64 64 64 64 63 62 60 57 53 56 54 53 50 51 52 52 52 51 51 50 50 50 51 51 51 51 51 49 48 46 46 46 46 46 45 46 46 45 45 45 45
65 65 65 64 63 64 62 62 60 58 54 54 55 53 49 49 48 50 49 49 49 49 48 47 47 47 47 48 49 48 47 46 45 45 44 45 45 46 45 44 44 43 44
61 62 62 62 62 61 61 60 60 59 56 54 55 53 52 51 48 44 47 47 47 46 46 44 43 43 44 45 46 46 45 45 45 45 46 45 45 45 44 44 44 43 43
55 56 58 59 59 59 59 58 57 57 56 55 54 52 51 51 49 45 43 44 45 45 44 43 44 44 44 44 45 46 45 46 45 44 43 44 45 44 43 43 41 40 42
54 54 54 55 56 56 56 56 56 56 55 54 54 52 51 49 48 46 45 44 42 43 43 43 43 43 44 44 45 45 44 42 41 42 42 43 44 43 42 41 40 40 40
53 52 53 53 53 53 54 54 55 55 54 54 52 52 52 51 50 47 45 43 42 41 41 42 42 43 42 44 45 43 41 41 41 40 40 41 41 40 39 37 37 37 38
52 51 52 52 52 52 53 53 53 53 54 53 52 52 51 50 49 47 46 44 41 41 41 39 41 41 42 43 43 41 40 39 38 39 39 38 39 37 36 35 34 34 34
51 51 51 50 50 50 51 51 50 50 50 50 49 49 49 49 49 48 47 45 42 39 39 40 38 41 41 43 42 39 38 38 38 38 37 36 36 35 33 33 32 32 32
49 49 49 49 49 48 49 49 48 48 48 48 47 48 48 47 47 47 47 46 45 42 40 42 39 40 41 41 40 38 38 37 36 36 36 36 35 32 32 31 30 30 29
49 48 48 48 47 47 47 47 47 47 47 46 46 46 45 46 46 45 46 45 44 43 39 38 39 39 40 39 38 37 37 35 35 35 36 35 34 32 30 29 29 28 27
48 47 47 46 46 46 46 46 45 45 45 44 44 44 43 43 42 42 43 42 41 41 39 36 36 37 37 37 36 36 36 34 33 33 34 33 31 30 29 28 28 27 26
46 46 46 46 45 45 44 44 44 44 43 43 42 42 41 41 40 39 39 40 39 38 38 37 35 36 36 35 35 35 35 34 34 32 33 31 31 29 27 26 26 26 25
46 45 45 45 45 44 43 42 42 42 42 41 40 40 39 39 38 36 36 37 38 36 36 36 36 35 34 34 34 31 30 33 33 32 33 29 29 28 26 25 24 24 24
45 45 45 44 43 43 42 41 41 40 40 39 38 37 36 36 35 34 33 34 36 35 35 34 34 33 32 31 30 32 30 31 30 31 32 30 29 27 26 24 23 23 23
45 45 44 43 43 42 41 40 40 39 38 36 35 33 33 35 33 32 32 34 35 35 34 33 34 33 31 32 32 31 29 28 25 31 31 29 28 26 24 22 22 21 21
45 44 43 43 42 42 40 39 39 38 36 34 33 32 32 33 32 32 32 32 32 32 34 33 34 34 32 33 32 30 29 27 26 29 29 27 28 27 25 22 23 22 21
44 44 43 43 42 41 40 39 37 36 35 33 32 32 31 31 31 31 30 29 27 28 29 32 34 34 35 35 33 31 30 30 30 30 28 24 28 25 25 24 24 23 21
45 44 42 42 41 40 39 38 36 35 34 32 31 31 30 29 31 30 27 25 25 26 28 28 30 33 35 36 34 32 29 28 24 26 28 23 24 23 25 25 28 24 21
45 43 42 40 40 40 38 38 37 35 32 31 29 29 29 28 30 27 25 24 24 26 26 26 28 30 34 35 34 32 30 27 24 24 28 24 22 22 21 24 26 24 23

GFSMA_sfc_30mbdewp_201.txt.gz
Dewpoint
65 65 66 65 66 66 66 65 64 63 62 62 62 61 63 64 65 64 64 65 65 66 66 65 65 64 65 64 63 61 61 60 59 58 58 58 58 58 58 58 58 58 58
65 65 65 65 65 66 67 65 64 63 62 61 60 61 62 64 65 65 64 65 65 65 65 65 64 64 63 61 59 58 57 57 56 55 55 55 54 54 54 54 54 54 53
67 65 65 64 65 65 67 66 65 63 61 60 60 62 63 64 64 65 64 64 64 64 64 64 63 61 60 59 57 56 54 54 53 52 51 51 51 51 50 50 50 50 50
67 66 65 64 64 65 65 65 64 63 61 59 60 61 62 63 63 64 64 64 64 63 62 62 61 60 59 57 55 54 52 51 50 49 49 49 48 48 47 47 47 47 47
67 67 65 65 65 65 64 65 64 63 61 58 59 60 61 61 61 61 62 62 62 61 60 59 59 58 58 56 54 52 51 50 49 49 48 47 47 47 47 47 47 47 47
66 66 66 66 65 64 64 64 64 63 61 60 58 58 59 58 58 58 58 60 60 59 58 57 57 56 56 54 53 52 51 49 48 48 47 47 47 46 46 47 48 48 48
66 66 66 66 66 64 64 64 64 62 57 58 56 55 55 55 55 55 56 57 56 56 56 56 55 55 54 54 53 52 51 49 48 47 47 46 46 46 47 47 47 47 46
66 66 66 66 65 65 64 64 62 59 57 58 56 55 51 52 53 53 53 54 54 54 54 54 55 55 53 54 53 51 49 48 48 47 47 46 46 47 46 46 46 45 45
66 67 66 66 65 65 64 63 63 60 56 57 57 55 50 50 50 51 51 50 51 51 51 50 50 51 52 53 51 50 49 48 47 46 46 46 48 47 46 45 44 45 46
64 65 66 65 65 64 64 64 63 62 59 56 56 56 54 53 50 46 48 47 48 46 45 47 47 48 49 49 48 47 47 47 47 47 47 46 47 46 45 45 43 44 44
59 59 60 61 61 62 62 62 60 60 59 58 56 54 53 51 50 47 43 44 46 46 46 46 46 46 47 47 47 47 46 47 46 44 44 45 47 45 44 43 42 42 43
57 57 56 57 58 58 58 59 59 59 59 58 57 55 53 51 49 48 45 44 43 43 44 45 45 45 46 46 46 46 45 43 43 44 44 45 45 44 42 41 40 40 41
56 55 54 55 56 56 56 56 57 57 57 56 56 54 54 53 51 49 47 44 41 41 42 43 44 44 45 46 46 44 41 42 42 43 43 43 42 41 39 37 37 37 38
57 55 54 54 55 56 56 56 57 57 56 56 55 54 53 53 51 49 46 43 41 41 41 40 43 43 44 45 45 43 42 42 41 41 41 40 39 37 36 35 34 34 33
54 54 53 53 53 54 54 55 54 54 54 54 53 53 52 51 51 49 48 45 42 39 39 39 39 42 43 44 43 41 41 40 40 40 39 37 36 35 34 33 32 31 31
52 52 52 51 51 51 51 51 51 51 51 50 50 50 50 50 50 49 48 47 45 43 40 40 40 41 43 43 41 40 40 39 38 37 37 36 33 33 31 31 30 29 29
50 50 50 50 49 49 49 49 49 49 49 48 48 49 49 49 49 48 48 47 46 44 40 38 39 41 41 40 39 39 39 37 37 38 36 35 33 31 31 30 29 27 26
50 49 49 49 48 47 47 48 47 47 47 47 47 47 47 46 46 46 47 45 44 43 40 36 37 38 38 39 38 37 36 35 36 37 35 33 32 30 29 29 27 26 25
49 49 48 47 47 47 46 46 46 46 46 46 45 45 44 44 43 43 44 43 42 42 40 37 35 37 37 37 36 36 35 35 33 35 33 32 30 28 28 27 27 26 24
48 48 48 47 47 46 46 45 45 45 45 44 44 44 44 44 42 42 41 40 40 40 39 38 36 35 34 36 35 32 31 34 34 34 31 31 29 28 26 25 25 25 24
47 47 47 47 47 46 45 45 44 44 44 43 42 42 42 42 40 40 40 39 38 39 38 37 35 33 32 32 31 32 31 31 33 34 31 29 28 26 26 24 24 24 24
47 47 46 46 45 44 44 43 43 42 42 43 41 39 38 40 39 38 37 39 40 39 38 37 35 33 32 33 33 32 30 29 28 34 30 30 29 27 25 22 22 23 24
47 46 45 45 44 44 43 42 41 42 41 40 40 38 37 37 36 35 34 36 36 37 39 38 36 35 33 33 33 32 31 30 28 31 30 29 30 27 25 23 23 22 21
46 46 46 45 44 44 43 41 40 41 40 39 37 37 36 35 35 34 35 35 34 35 35 37 38 37 37 36 35 33 32 31 32 32 32 27 29 28 28 26 24 23 21
44 45 44 44 43 42 42 41 39 38 36 36 35 35 35 35 34 33 32 31 31 30 30 35 37 37 37 36 36 34 31 29 27 29 32 28 27 27 29 28 27 24 22
42 43 43 42 42 42 40 40 38 37 36 35 34 35 34 34 33 32 31 30 30 30 31 32 34 35 36 35 33 34 32 29 28 27 30 28 26 25 24 27 29 29 23